owner,sensor,date,latitude,longitude,sea_surface_height_above_sea_level,qcFlag 
TCOON,ioos:station:TCOON:524:1,2015-03-01T00:12:00Z,29.8672,-93.9310,1.774,1111122 
TCOON,ioos:station:TCOON:524:1,2015-03-01T01:12:00Z,29.8672,-93.9310,1.794,1111122 
TCOON,ioos:station:TCOON:524:1,2015-03-01T02:12:00Z,29.8672,-93.9310,1.799,1111122 
TCOON,ioos:station:TCOON:524:1,2015-03-01T03:12:00Z,29.8672,-93.9310,1.81,1111122 
TCOON,ioos:station:TCOON:524:1,2015-03-01T04:12:00Z,29.8672,-93.9310,1.806,1111122 
TCOON,ioos:station:TCOON:524:1,2015-03-01T05:18:00Z,29.8672,-93.9310,1.828,1111122 
TCOON,ioos:station:TCOON:524:1,2015-03-01T06:18:00Z,29.8672,-93.9310,1.874,1111122 
TCOON,ioos:station:TCOON:524:1,2015-03-01T07:12:00Z,29.8672,-93.9310,1.876,1111122 
TCOON,ioos:station:TCOON:524:1,2015-03-01T08:18:00Z,29.8672,-93.9310,1.828,1111122 
TCOON,ioos:station:TCOON:524:1,2015-03-01T09:18:00Z,29.8672,-93.9310,1.817,1111122 
TCOON,ioos:station:TCOON:524:1,2015-03-01T10:12:00Z,29.8672,-93.9310,1.799,1111122 
TCOON,ioos:station:TCOON:524:1,2015-03-01T11:12:00Z,29.8672,-93.9310,1.72,1111122 
TCOON,ioos:station:TCOON:524:1,2015-03-01T12:12:00Z,29.8672,-93.9310,1.668,1111122 
TCOON,ioos:station:TCOON:524:1,2015-03-01T13:12:00Z,29.8672,-93.9310,1.628,1111122 
TCOON,ioos:station:TCOON:524:1,2015-03-01T14:12:00Z,29.8672,-93.9310,1.625,1111122 
TCOON,ioos:station:TCOON:524:1,2015-03-01T15:12:00Z,29.8672,-93.9310,1.605,1111122 
TCOON,ioos:station:TCOON:524:1,2015-03-01T16:12:00Z,29.8672,-93.9310,1.625,1111122 
TCOON,ioos:station:TCOON:524:1,2015-03-01T17:12:00Z,29.8672,-93.9310,1.651,1111122 
TCOON,ioos:station:TCOON:524:1,2015-03-01T18:12:00Z,29.8672,-93.9310,1.668,1111122 
TCOON,ioos:station:TCOON:524:1,2015-03-01T19:12:00Z,29.8672,-93.9310,1.732,1111122 
TCOON,ioos:station:TCOON:524:1,2015-03-01T20:12:00Z,29.8672,-93.9310,1.766,1111122 
TCOON,ioos:station:TCOON:524:1,2015-03-01T21:12:00Z,29.8672,-93.9310,1.778,1111122 
TCOON,ioos:station:TCOON:524:1,2015-03-01T22:12:00Z,29.8672,-93.9310,1.769,1111122 
TCOON,ioos:station:TCOON:524:1,2015-03-01T23:12:00Z,29.8672,-93.9310,1.761,1111122 
TCOON,ioos:station:TCOON:524:1,2015-03-02T00:12:00Z,29.8672,-93.9310,1.755,1111122 
TCOON,ioos:station:TCOON:524:1,2015-03-02T01:12:00Z,29.8672,-93.9310,1.73,1111122 
TCOON,ioos:station:TCOON:524:1,2015-03-02T02:12:00Z,29.8672,-93.9310,1.693,1111122 
TCOON,ioos:station:TCOON:524:1,2015-03-02T03:18:00Z,29.8672,-93.9310,1.675,1111122 
TCOON,ioos:station:TCOON:524:1,2015-03-02T04:18:00Z,29.8672,-93.9310,1.667,1111122 
TCOON,ioos:station:TCOON:524:1,2015-03-02T05:12:00Z,29.8672,-93.9310,1.652,1111122 
TCOON,ioos:station:TCOON:524:1,2015-03-02T06:18:00Z,29.8672,-93.9310,1.652,1111122 
TCOON,ioos:station:TCOON:524:1,2015-03-02T07:12:00Z,29.8672,-93.9310,1.643,1111122 
TCOON,ioos:station:TCOON:524:1,2015-03-02T08:12:00Z,29.8672,-93.9310,1.615,1111122 
TCOON,ioos:station:TCOON:524:1,2015-03-02T09:12:00Z,29.8672,-93.9310,1.578,1111122 
TCOON,ioos:station:TCOON:524:1,2015-03-02T10:12:00Z,29.8672,-93.9310,1.548,1111122 
TCOON,ioos:station:TCOON:524:1,2015-03-02T11:18:00Z,29.8672,-93.9310,1.472,1111122 
TCOON,ioos:station:TCOON:524:1,2015-03-02T12:12:00Z,29.8672,-93.9310,1.428,1111122 
TCOON,ioos:station:TCOON:524:1,2015-03-02T13:12:00Z,29.8672,-93.9310,1.373,1111122 
TCOON,ioos:station:TCOON:524:1,2015-03-02T14:18:00Z,29.8672,-93.9310,1.334,1111122 
TCOON,ioos:station:TCOON:524:1,2015-03-02T15:18:00Z,29.8672,-93.9310,1.332,1111122 
TCOON,ioos:station:TCOON:524:1,2015-03-02T16:18:00Z,29.8672,-93.9310,1.337,1111122 
TCOON,ioos:station:TCOON:524:1,2015-03-02T17:18:00Z,29.8672,-93.9310,1.365,1111122 
TCOON,ioos:station:TCOON:524:1,2015-03-02T18:18:00Z,29.8672,-93.9310,1.36,1111122 
TCOON,ioos:station:TCOON:524:1,2015-03-02T19:18:00Z,29.8672,-93.9310,1.454,1111122 
TCOON,ioos:station:TCOON:524:1,2015-03-02T20:18:00Z,29.8672,-93.9310,1.465,1111122 
TCOON,ioos:station:TCOON:524:1,2015-03-02T21:18:00Z,29.8672,-93.9310,1.502,1111122 
TCOON,ioos:station:TCOON:524:1,2015-03-02T22:18:00Z,29.8672,-93.9310,1.553,1111122 
TCOON,ioos:station:TCOON:524:1,2015-03-02T23:30:00Z,29.8672,-93.9310,1.554,1111122 
TCOON,ioos:station:TCOON:524:1,2015-03-03T00:18:00Z,29.8672,-93.9310,1.565,1111122 
TCOON,ioos:station:TCOON:524:1,2015-03-03T01:18:00Z,29.8672,-93.9310,1.572,1111122 
TCOON,ioos:station:TCOON:524:1,2015-03-03T02:12:00Z,29.8672,-93.9310,1.586,1111122 
TCOON,ioos:station:TCOON:524:1,2015-03-03T03:12:00Z,29.8672,-93.9310,1.57,1111122 
TCOON,ioos:station:TCOON:524:1,2015-03-03T04:12:00Z,29.8672,-93.9310,1.566,1111122 
TCOON,ioos:station:TCOON:524:1,2015-03-03T05:18:00Z,29.8672,-93.9310,1.583,1111122 
TCOON,ioos:station:TCOON:524:1,2015-03-03T06:18:00Z,29.8672,-93.9310,1.58,1111122 
TCOON,ioos:station:TCOON:524:1,2015-03-03T07:12:00Z,29.8672,-93.9310,1.59,1111122 
TCOON,ioos:station:TCOON:524:1,2015-03-03T08:12:00Z,29.8672,-93.9310,1.613,1111122 
TCOON,ioos:station:TCOON:524:1,2015-03-03T09:12:00Z,29.8672,-93.9310,1.607,1111122 
TCOON,ioos:station:TCOON:524:1,2015-03-03T10:18:00Z,29.8672,-93.9310,1.593,1111122 
TCOON,ioos:station:TCOON:524:1,2015-03-03T11:12:00Z,29.8672,-93.9310,1.578,1111122 
TCOON,ioos:station:TCOON:524:1,2015-03-03T12:18:00Z,29.8672,-93.9310,1.524,1111122 
TCOON,ioos:station:TCOON:524:1,2015-03-03T13:18:00Z,29.8672,-93.9310,1.469,1111122 
TCOON,ioos:station:TCOON:524:1,2015-03-03T14:12:00Z,29.8672,-93.9310,1.439,1111122 
TCOON,ioos:station:TCOON:524:1,2015-03-03T15:18:00Z,29.8672,-93.9310,1.425,1111122 
TCOON,ioos:station:TCOON:524:1,2015-03-03T16:18:00Z,29.8672,-93.9310,1.427,1111122 
TCOON,ioos:station:TCOON:524:1,2015-03-03T17:18:00Z,29.8672,-93.9310,1.453,1111122 
TCOON,ioos:station:TCOON:524:1,2015-03-03T18:12:00Z,29.8672,-93.9310,1.459,1111122 
TCOON,ioos:station:TCOON:524:1,2015-03-03T19:18:00Z,29.8672,-93.9310,1.506,1111122 
TCOON,ioos:station:TCOON:524:1,2015-03-03T20:12:00Z,29.8672,-93.9310,1.566,1111122 
TCOON,ioos:station:TCOON:524:1,2015-03-03T21:18:00Z,29.8672,-93.9310,1.609,1111122 
TCOON,ioos:station:TCOON:524:1,2015-03-03T22:48:00Z,29.8672,-93.9310,1.639,1111122 
TCOON,ioos:station:TCOON:524:1,2015-03-03T23:18:00Z,29.8672,-93.9310,1.667,1111122 
TCOON,ioos:station:TCOON:524:1,2015-03-04T00:12:00Z,29.8672,-93.9310,1.716,1111122 
TCOON,ioos:station:TCOON:524:1,2015-03-04T01:12:00Z,29.8672,-93.9310,1.688,1111122 
TCOON,ioos:station:TCOON:524:1,2015-03-04T02:12:00Z,29.8672,-93.9310,1.634,1111122 
TCOON,ioos:station:TCOON:524:1,2015-03-04T03:12:00Z,29.8672,-93.9310,1.644,1111122 
TCOON,ioos:station:TCOON:524:1,2015-03-04T04:18:00Z,29.8672,-93.9310,1.645,1111122 
TCOON,ioos:station:TCOON:524:1,2015-03-04T05:12:00Z,29.8672,-93.9310,1.655,1111122 
TCOON,ioos:station:TCOON:524:1,2015-03-04T06:18:00Z,29.8672,-93.9310,1.672,1111122 
TCOON,ioos:station:TCOON:524:1,2015-03-04T07:12:00Z,29.8672,-93.9310,1.679,1111122 
TCOON,ioos:station:TCOON:524:1,2015-03-04T08:18:00Z,29.8672,-93.9310,1.696,1111122 
TCOON,ioos:station:TCOON:524:1,2015-03-04T09:12:00Z,29.8672,-93.9310,1.703,1111122 
TCOON,ioos:station:TCOON:524:1,2015-03-04T10:12:00Z,29.8672,-93.9310,1.692,1111122 
TCOON,ioos:station:TCOON:524:1,2015-03-04T11:12:00Z,29.8672,-93.9310,1.687,1111122 
TCOON,ioos:station:TCOON:524:1,2015-03-04T12:12:00Z,29.8672,-93.9310,1.649,1111122 
TCOON,ioos:station:TCOON:524:1,2015-03-04T13:18:00Z,29.8672,-93.9310,1.58,1111122 
TCOON,ioos:station:TCOON:524:1,2015-03-04T14:12:00Z,29.8672,-93.9310,1.526,1111122 
TCOON,ioos:station:TCOON:524:1,2015-03-04T15:18:00Z,29.8672,-93.9310,1.497,1111122 
TCOON,ioos:station:TCOON:524:1,2015-03-04T16:24:00Z,29.8672,-93.9310,1.455,1111122 
TCOON,ioos:station:TCOON:524:1,2015-03-04T17:18:00Z,29.8672,-93.9310,1.478,1111122 
TCOON,ioos:station:TCOON:524:1,2015-03-04T18:18:00Z,29.8672,-93.9310,1.494,1111122 
TCOON,ioos:station:TCOON:524:1,2015-03-04T19:24:00Z,29.8672,-93.9310,1.532,1111122 
TCOON,ioos:station:TCOON:524:1,2015-03-04T20:18:00Z,29.8672,-93.9310,1.558,1111122 
TCOON,ioos:station:TCOON:524:1,2015-03-04T21:12:00Z,29.8672,-93.9310,1.601,1111122 
TCOON,ioos:station:TCOON:524:1,2015-03-04T22:12:00Z,29.8672,-93.9310,1.662,1111122 
TCOON,ioos:station:TCOON:524:1,2015-03-04T23:12:00Z,29.8672,-93.9310,1.659,1111122 
TCOON,ioos:station:TCOON:524:1,2015-03-05T00:12:00Z,29.8672,-93.9310,1.669,1111122 
TCOON,ioos:station:TCOON:524:1,2015-03-05T01:12:00Z,29.8672,-93.9310,1.693,1111122 
TCOON,ioos:station:TCOON:524:1,2015-03-05T02:12:00Z,29.8672,-93.9310,1.675,1111122 
TCOON,ioos:station:TCOON:524:1,2015-03-05T03:12:00Z,29.8672,-93.9310,1.679,1111122 
TCOON,ioos:station:TCOON:524:1,2015-03-05T04:12:00Z,29.8672,-93.9310,1.645,1111122 
TCOON,ioos:station:TCOON:524:1,2015-03-05T05:18:00Z,29.8672,-93.9310,1.622,1111122 
TCOON,ioos:station:TCOON:524:1,2015-03-05T06:18:00Z,29.8672,-93.9310,1.638,1111122 
TCOON,ioos:station:TCOON:524:1,2015-03-05T07:12:00Z,29.8672,-93.9310,1.644,1111122 
TCOON,ioos:station:TCOON:524:1,2015-03-05T08:18:00Z,29.8672,-93.9310,1.655,1111122 
TCOON,ioos:station:TCOON:524:1,2015-03-05T09:18:00Z,29.8672,-93.9310,1.584,1111122 
TCOON,ioos:station:TCOON:524:1,2015-03-05T10:12:00Z,29.8672,-93.9310,1.521,1111122 
TCOON,ioos:station:TCOON:524:1,2015-03-05T11:18:00Z,29.8672,-93.9310,1.418,1111122 
TCOON,ioos:station:TCOON:524:1,2015-03-05T12:18:00Z,29.8672,-93.9310,1.29,1111122 
TCOON,ioos:station:TCOON:524:1,2015-03-05T13:18:00Z,29.8672,-93.9310,1.204,1111122 
TCOON,ioos:station:TCOON:524:1,2015-03-05T14:18:00Z,29.8672,-93.9310,1.123,1111122 
TCOON,ioos:station:TCOON:524:1,2015-03-05T15:12:00Z,29.8672,-93.9310,1.189,1111122 
TCOON,ioos:station:TCOON:524:1,2015-03-05T16:18:00Z,29.8672,-93.9310,0.983,1111122 
TCOON,ioos:station:TCOON:524:1,2015-03-05T17:18:00Z,29.8672,-93.9310,0.991,1111122 
TCOON,ioos:station:TCOON:524:1,2015-03-05T18:18:00Z,29.8672,-93.9310,1.029,1111122 
TCOON,ioos:station:TCOON:524:1,2015-03-05T19:18:00Z,29.8672,-93.9310,1.058,1111122 
TCOON,ioos:station:TCOON:524:1,2015-03-05T20:18:00Z,29.8672,-93.9310,1.123,1111122 
TCOON,ioos:station:TCOON:524:1,2015-03-05T21:18:00Z,29.8672,-93.9310,1.126,1111122 
TCOON,ioos:station:TCOON:524:1,2015-03-05T22:18:00Z,29.8672,-93.9310,1.14,1111122 
TCOON,ioos:station:TCOON:524:1,2015-03-05T23:12:00Z,29.8672,-93.9310,1.117,1111122 
TCOON,ioos:station:TCOON:524:1,2015-03-06T00:12:00Z,29.8672,-93.9310,1.052,1111122 
TCOON,ioos:station:TCOON:524:1,2015-03-06T01:12:00Z,29.8672,-93.9310,1.065,1111122 
TCOON,ioos:station:TCOON:524:1,2015-03-06T02:12:00Z,29.8672,-93.9310,1.062,1111122 
TCOON,ioos:station:TCOON:524:1,2015-03-06T03:12:00Z,29.8672,-93.9310,0.999,1111122 
TCOON,ioos:station:TCOON:524:1,2015-03-06T04:12:00Z,29.8672,-93.9310,1.006,1111122 
TCOON,ioos:station:TCOON:524:1,2015-03-06T05:24:00Z,29.8672,-93.9310,1.078,1111122 
TCOON,ioos:station:TCOON:524:1,2015-03-06T07:00:00Z,29.8672,-93.9310,1.083,1111122 
TCOON,ioos:station:TCOON:524:1,2015-03-06T07:12:00Z,29.8672,-93.9310,1.089,1111122 
TCOON,ioos:station:TCOON:524:1,2015-03-06T08:24:00Z,29.8672,-93.9310,1.118,1111122 
TCOON,ioos:station:TCOON:524:1,2015-03-06T09:24:00Z,29.8672,-93.9310,1.166,1111122 
TCOON,ioos:station:TCOON:524:1,2015-03-06T10:12:00Z,29.8672,-93.9310,1.195,1111122 
TCOON,ioos:station:TCOON:524:1,2015-03-06T11:18:00Z,29.8672,-93.9310,1.22,1111122 
TCOON,ioos:station:TCOON:524:1,2015-03-06T12:12:00Z,29.8672,-93.9310,1.227,1111122 
TCOON,ioos:station:TCOON:524:1,2015-03-06T13:18:00Z,29.8672,-93.9310,1.223,1111122 
TCOON,ioos:station:TCOON:524:1,2015-03-06T14:12:00Z,29.8672,-93.9310,1.231,1111122 
TCOON,ioos:station:TCOON:524:1,2015-03-06T15:12:00Z,29.8672,-93.9310,1.295,1111122 
TCOON,ioos:station:TCOON:524:1,2015-03-06T16:12:00Z,29.8672,-93.9310,1.165,1111122 
TCOON,ioos:station:TCOON:524:1,2015-03-06T17:18:00Z,29.8672,-93.9310,1.221,1111122 
TCOON,ioos:station:TCOON:524:1,2015-03-06T18:12:00Z,29.8672,-93.9310,1.268,1111122 
TCOON,ioos:station:TCOON:524:1,2015-03-06T19:12:00Z,29.8672,-93.9310,1.295,1111122 
TCOON,ioos:station:TCOON:524:1,2015-03-06T20:12:00Z,29.8672,-93.9310,1.348,1111122 
TCOON,ioos:station:TCOON:524:1,2015-03-06T21:12:00Z,29.8672,-93.9310,1.452,1111122 
TCOON,ioos:station:TCOON:524:1,2015-03-06T22:12:00Z,29.8672,-93.9310,1.433,1111122 
TCOON,ioos:station:TCOON:524:1,2015-03-06T23:12:00Z,29.8672,-93.9310,1.452,1111122 
TCOON,ioos:station:TCOON:524:1,2015-03-07T00:12:00Z,29.8672,-93.9310,1.519,1111122 
TCOON,ioos:station:TCOON:524:1,2015-03-07T01:12:00Z,29.8672,-93.9310,1.509,1111122 
TCOON,ioos:station:TCOON:524:1,2015-03-07T02:12:00Z,29.8672,-93.9310,1.529,1111122 
TCOON,ioos:station:TCOON:524:1,2015-03-07T03:12:00Z,29.8672,-93.9310,1.5,1111122 
TCOON,ioos:station:TCOON:524:1,2015-03-07T04:12:00Z,29.8672,-93.9310,1.461,1111122 
TCOON,ioos:station:TCOON:524:1,2015-03-07T05:12:00Z,29.8672,-93.9310,1.392,1111122 
TCOON,ioos:station:TCOON:524:1,2015-03-07T06:18:00Z,29.8672,-93.9310,1.357,1111122 
TCOON,ioos:station:TCOON:524:1,2015-03-07T07:18:00Z,29.8672,-93.9310,1.433,1111122 
TCOON,ioos:station:TCOON:524:1,2015-03-07T08:18:00Z,29.8672,-93.9310,1.424,1111122 
TCOON,ioos:station:TCOON:524:1,2015-03-07T09:12:00Z,29.8672,-93.9310,1.454,1111122 
TCOON,ioos:station:TCOON:524:1,2015-03-07T10:12:00Z,29.8672,-93.9310,1.466,1111122 
TCOON,ioos:station:TCOON:524:1,2015-03-07T11:12:00Z,29.8672,-93.9310,1.5,1111122 
TCOON,ioos:station:TCOON:524:1,2015-03-07T12:12:00Z,29.8672,-93.9310,1.493,1111122 
TCOON,ioos:station:TCOON:524:1,2015-03-07T13:12:00Z,29.8672,-93.9310,1.477,1111122 
TCOON,ioos:station:TCOON:524:1,2015-03-07T14:12:00Z,29.8672,-93.9310,1.494,1111122 
TCOON,ioos:station:TCOON:524:1,2015-03-07T15:12:00Z,29.8672,-93.9310,1.496,1111122 
TCOON,ioos:station:TCOON:524:1,2015-03-07T16:12:00Z,29.8672,-93.9310,1.378,1111122 
TCOON,ioos:station:TCOON:524:1,2015-03-07T17:12:00Z,29.8672,-93.9310,1.387,1111122 
TCOON,ioos:station:TCOON:524:1,2015-03-07T18:12:00Z,29.8672,-93.9310,1.379,1111122 
TCOON,ioos:station:TCOON:524:1,2015-03-07T19:12:00Z,29.8672,-93.9310,1.4,1111122 
TCOON,ioos:station:TCOON:524:1,2015-03-07T20:12:00Z,29.8672,-93.9310,1.398,1111122 
TCOON,ioos:station:TCOON:524:1,2015-03-07T21:12:00Z,29.8672,-93.9310,1.468,1111122 
TCOON,ioos:station:TCOON:524:1,2015-03-07T22:12:00Z,29.8672,-93.9310,1.513,1111122 
TCOON,ioos:station:TCOON:524:1,2015-03-07T23:12:00Z,29.8672,-93.9310,1.539,1111122 
TCOON,ioos:station:TCOON:524:1,2015-03-08T00:12:00Z,29.8672,-93.9310,1.558,1111122 
TCOON,ioos:station:TCOON:524:1,2015-03-08T01:12:00Z,29.8672,-93.9310,1.566,1111122 
TCOON,ioos:station:TCOON:524:1,2015-03-08T02:12:00Z,29.8672,-93.9310,1.578,1111122 
TCOON,ioos:station:TCOON:524:1,2015-03-08T03:12:00Z,29.8672,-93.9310,1.562,1111122 
TCOON,ioos:station:TCOON:524:1,2015-03-08T04:12:00Z,29.8672,-93.9310,1.521,1111122 
TCOON,ioos:station:TCOON:524:1,2015-03-08T05:12:00Z,29.8672,-93.9310,1.515,1111122 
TCOON,ioos:station:TCOON:524:1,2015-03-08T07:00:00Z,29.8672,-93.9310,1.486,1111122 
TCOON,ioos:station:TCOON:524:1,2015-03-08T07:12:00Z,29.8672,-93.9310,1.473,1111122 
TCOON,ioos:station:TCOON:524:1,2015-03-08T08:18:00Z,29.8672,-93.9310,1.514,1111122 
TCOON,ioos:station:TCOON:524:1,2015-03-08T09:12:00Z,29.8672,-93.9310,1.533,1111122 
TCOON,ioos:station:TCOON:524:1,2015-03-08T10:12:00Z,29.8672,-93.9310,1.532,1111122 
TCOON,ioos:station:TCOON:524:1,2015-03-08T11:18:00Z,29.8672,-93.9310,1.58,1111122 
TCOON,ioos:station:TCOON:524:1,2015-03-08T12:12:00Z,29.8672,-93.9310,1.616,1111122 
TCOON,ioos:station:TCOON:524:1,2015-03-08T13:12:00Z,29.8672,-93.9310,1.619,1111122 
TCOON,ioos:station:TCOON:524:1,2015-03-08T14:12:00Z,29.8672,-93.9310,1.594,1111122 
TCOON,ioos:station:TCOON:524:1,2015-03-08T15:12:00Z,29.8672,-93.9310,1.603,1111122 
TCOON,ioos:station:TCOON:524:1,2015-03-08T16:12:00Z,29.8672,-93.9310,1.578,1111122 
TCOON,ioos:station:TCOON:524:1,2015-03-08T17:12:00Z,29.8672,-93.9310,1.516,1111122 
TCOON,ioos:station:TCOON:524:1,2015-03-08T18:12:00Z,29.8672,-93.9310,1.5,1111122 
TCOON,ioos:station:TCOON:524:1,2015-03-08T19:12:00Z,29.8672,-93.9310,1.586,1111122 
TCOON,ioos:station:TCOON:524:1,2015-03-08T20:12:00Z,29.8672,-93.9310,1.521,1111122 
TCOON,ioos:station:TCOON:524:1,2015-03-08T21:12:00Z,29.8672,-93.9310,1.562,1111122 
TCOON,ioos:station:TCOON:524:1,2015-03-08T22:18:00Z,29.8672,-93.9310,1.551,1111122 
TCOON,ioos:station:TCOON:524:1,2015-03-08T23:12:00Z,29.8672,-93.9310,1.582,1111122 
TCOON,ioos:station:TCOON:524:1,2015-03-09T00:12:00Z,29.8672,-93.9310,1.574,1111122 
TCOON,ioos:station:TCOON:524:1,2015-03-09T01:12:00Z,29.8672,-93.9310,1.573,1111122 
TCOON,ioos:station:TCOON:524:1,2015-03-09T02:12:00Z,29.8672,-93.9310,1.497,1111122 
TCOON,ioos:station:TCOON:524:1,2015-03-09T03:12:00Z,29.8672,-93.9310,1.396,1111122 
TCOON,ioos:station:TCOON:524:1,2015-03-09T04:12:00Z,29.8672,-93.9310,1.459,1111122 
TCOON,ioos:station:TCOON:524:1,2015-03-09T05:18:00Z,29.8672,-93.9310,1.397,1111122 
TCOON,ioos:station:TCOON:524:1,2015-03-09T06:18:00Z,29.8672,-93.9310,1.423,1111122 
TCOON,ioos:station:TCOON:524:1,2015-03-09T07:12:00Z,29.8672,-93.9310,1.446,1111122 
TCOON,ioos:station:TCOON:524:1,2015-03-09T08:18:00Z,29.8672,-93.9310,1.468,1111122 
TCOON,ioos:station:TCOON:524:1,2015-03-09T09:18:00Z,29.8672,-93.9310,1.445,1111122 
TCOON,ioos:station:TCOON:524:1,2015-03-09T10:12:00Z,29.8672,-93.9310,1.526,1111122 
TCOON,ioos:station:TCOON:524:1,2015-03-09T11:18:00Z,29.8672,-93.9310,1.553,1111122 
TCOON,ioos:station:TCOON:524:1,2015-03-09T12:18:00Z,29.8672,-93.9310,1.581,1111122 
TCOON,ioos:station:TCOON:524:1,2015-03-09T13:18:00Z,29.8672,-93.9310,1.616,1111122 
TCOON,ioos:station:TCOON:524:1,2015-03-09T14:18:00Z,29.8672,-93.9310,1.618,1111122 
TCOON,ioos:station:TCOON:524:1,2015-03-09T15:12:00Z,29.8672,-93.9310,1.615,1111122 
TCOON,ioos:station:TCOON:524:1,2015-03-09T16:18:00Z,29.8672,-93.9310,1.7,1111122 
TCOON,ioos:station:TCOON:524:1,2015-03-09T17:18:00Z,29.8672,-93.9310,1.656,1111122 
TCOON,ioos:station:TCOON:524:1,2015-03-09T18:12:00Z,29.8672,-93.9310,1.69,1111122 
TCOON,ioos:station:TCOON:524:1,2015-03-09T19:18:00Z,29.8672,-93.9310,1.669,1111122 
TCOON,ioos:station:TCOON:524:1,2015-03-09T20:18:00Z,29.8672,-93.9310,1.72,1111122 
TCOON,ioos:station:TCOON:524:1,2015-03-09T22:48:00Z,29.8672,-93.9310,1.717,1111122 
TCOON,ioos:station:TCOON:524:1,2015-03-09T23:24:00Z,29.8672,-93.9310,1.739,1111122 
TCOON,ioos:station:TCOON:524:1,2015-03-10T00:12:00Z,29.8672,-93.9310,1.732,1111122 
TCOON,ioos:station:TCOON:524:1,2015-03-10T01:12:00Z,29.8672,-93.9310,1.73,1111122 
TCOON,ioos:station:TCOON:524:1,2015-03-10T02:12:00Z,29.8672,-93.9310,1.747,1111122 
TCOON,ioos:station:TCOON:524:1,2015-03-10T03:12:00Z,29.8672,-93.9310,1.705,1111122 
TCOON,ioos:station:TCOON:524:1,2015-03-10T04:18:00Z,29.8672,-93.9310,1.687,1111122 
TCOON,ioos:station:TCOON:524:1,2015-03-10T05:12:00Z,29.8672,-93.9310,1.613,1111122 
TCOON,ioos:station:TCOON:524:1,2015-03-10T07:00:00Z,29.8672,-93.9310,1.555,1111122 
TCOON,ioos:station:TCOON:524:1,2015-03-10T07:12:00Z,29.8672,-93.9310,1.552,1111122 
TCOON,ioos:station:TCOON:524:1,2015-03-10T08:18:00Z,29.8672,-93.9310,1.535,1111122 
TCOON,ioos:station:TCOON:524:1,2015-03-10T09:12:00Z,29.8672,-93.9310,1.524,1111122 
TCOON,ioos:station:TCOON:524:1,2015-03-10T10:18:00Z,29.8672,-93.9310,1.519,1111122 
TCOON,ioos:station:TCOON:524:1,2015-03-10T11:18:00Z,29.8672,-93.9310,1.543,1111122 
TCOON,ioos:station:TCOON:524:1,2015-03-10T12:12:00Z,29.8672,-93.9310,1.587,1111122 
TCOON,ioos:station:TCOON:524:1,2015-03-10T13:06:00Z,29.8672,-93.9310,1.606,1111122 
TCOON,ioos:station:TCOON:524:1,2015-03-10T14:18:00Z,29.8672,-93.9310,1.629,1111122 
TCOON,ioos:station:TCOON:524:1,2015-03-10T15:18:00Z,29.8672,-93.9310,1.633,1111122 
TCOON,ioos:station:TCOON:524:1,2015-03-10T16:18:00Z,29.8672,-93.9310,1.61,1111122 
TCOON,ioos:station:TCOON:524:1,2015-03-10T17:12:00Z,29.8672,-93.9310,1.631,1111122 
TCOON,ioos:station:TCOON:524:1,2015-03-10T18:12:00Z,29.8672,-93.9310,1.594,1111122 
TCOON,ioos:station:TCOON:524:1,2015-03-10T19:18:00Z,29.8672,-93.9310,1.625,1111122 
TCOON,ioos:station:TCOON:524:1,2015-03-10T20:12:00Z,29.8672,-93.9310,1.571,1111122 
TCOON,ioos:station:TCOON:524:1,2015-03-10T21:12:00Z,29.8672,-93.9310,1.57,1111122 
TCOON,ioos:station:TCOON:524:1,2015-03-10T22:12:00Z,29.8672,-93.9310,1.541,1111122 
TCOON,ioos:station:TCOON:524:1,2015-03-10T23:12:00Z,29.8672,-93.9310,1.604,1111122 
TCOON,ioos:station:TCOON:524:1,2015-03-11T00:12:00Z,29.8672,-93.9310,1.566,1111122 
TCOON,ioos:station:TCOON:524:1,2015-03-11T01:12:00Z,29.8672,-93.9310,1.633,1111122 
TCOON,ioos:station:TCOON:524:1,2015-03-11T02:12:00Z,29.8672,-93.9310,1.608,1111122 
TCOON,ioos:station:TCOON:524:1,2015-03-11T03:12:00Z,29.8672,-93.9310,1.576,1111122 
TCOON,ioos:station:TCOON:524:1,2015-03-11T04:18:00Z,29.8672,-93.9310,1.512,1111122 
TCOON,ioos:station:TCOON:524:1,2015-03-11T05:12:00Z,29.8672,-93.9310,1.457,1111122 
TCOON,ioos:station:TCOON:524:1,2015-03-11T07:00:00Z,29.8672,-93.9310,1.376,1111122 
TCOON,ioos:station:TCOON:524:1,2015-03-11T08:24:00Z,29.8672,-93.9310,1.378,1111122 
TCOON,ioos:station:TCOON:524:1,2015-03-11T09:18:00Z,29.8672,-93.9310,1.421,1111122 
TCOON,ioos:station:TCOON:524:1,2015-03-11T10:12:00Z,29.8672,-93.9310,1.389,1111122 
TCOON,ioos:station:TCOON:524:1,2015-03-11T11:12:00Z,29.8672,-93.9310,1.433,1111122 
TCOON,ioos:station:TCOON:524:1,2015-03-11T12:18:00Z,29.8672,-93.9310,1.489,1111122 
TCOON,ioos:station:TCOON:524:1,2015-03-11T13:18:00Z,29.8672,-93.9310,1.489,1111122 
TCOON,ioos:station:TCOON:524:1,2015-03-11T14:12:00Z,29.8672,-93.9310,1.538,1111122 
TCOON,ioos:station:TCOON:524:1,2015-03-11T15:18:00Z,29.8672,-93.9310,1.565,1111122 
TCOON,ioos:station:TCOON:524:1,2015-03-11T16:12:00Z,29.8672,-93.9310,1.543,1111122 
TCOON,ioos:station:TCOON:524:1,2015-03-11T17:18:00Z,29.8672,-93.9310,1.574,1111122 
TCOON,ioos:station:TCOON:524:1,2015-03-11T18:18:00Z,29.8672,-93.9310,1.532,1111122 
TCOON,ioos:station:TCOON:524:1,2015-03-11T19:18:00Z,29.8672,-93.9310,1.511,1111122 
TCOON,ioos:station:TCOON:524:1,2015-03-11T20:18:00Z,29.8672,-93.9310,1.526,1111122 
TCOON,ioos:station:TCOON:524:1,2015-03-11T21:12:00Z,29.8672,-93.9310,1.547,1111122 
TCOON,ioos:station:TCOON:524:1,2015-03-11T22:12:00Z,29.8672,-93.9310,1.541,1111122 
TCOON,ioos:station:TCOON:524:1,2015-03-11T23:18:00Z,29.8672,-93.9310,1.61,1111122 
TCOON,ioos:station:TCOON:524:1,2015-03-12T00:12:00Z,29.8672,-93.9310,1.511,1111122 
TCOON,ioos:station:TCOON:524:1,2015-03-12T01:12:00Z,29.8672,-93.9310,1.596,1111122 
TCOON,ioos:station:TCOON:524:1,2015-03-12T02:12:00Z,29.8672,-93.9310,1.535,1111122 
TCOON,ioos:station:TCOON:524:1,2015-03-12T03:12:00Z,29.8672,-93.9310,1.569,1111122 
TCOON,ioos:station:TCOON:524:1,2015-03-12T04:12:00Z,29.8672,-93.9310,1.526,1111122 
TCOON,ioos:station:TCOON:524:1,2015-03-12T05:12:00Z,29.8672,-93.9310,1.467,1111122 
TCOON,ioos:station:TCOON:524:1,2015-03-12T07:00:00Z,29.8672,-93.9310,1.401,1111122 
TCOON,ioos:station:TCOON:524:1,2015-03-12T07:18:00Z,29.8672,-93.9310,1.435,1111122 
TCOON,ioos:station:TCOON:524:1,2015-03-12T08:18:00Z,29.8672,-93.9310,1.42,1111122 
TCOON,ioos:station:TCOON:524:1,2015-03-12T09:24:00Z,29.8672,-93.9310,1.432,1111122 
TCOON,ioos:station:TCOON:524:1,2015-03-12T10:12:00Z,29.8672,-93.9310,1.446,1111122 
TCOON,ioos:station:TCOON:524:1,2015-03-12T11:12:00Z,29.8672,-93.9310,1.488,1111122 
TCOON,ioos:station:TCOON:524:1,2015-03-12T12:18:00Z,29.8672,-93.9310,1.496,1111122 
TCOON,ioos:station:TCOON:524:1,2015-03-12T13:12:00Z,29.8672,-93.9310,1.522,1111122 
TCOON,ioos:station:TCOON:524:1,2015-03-12T14:12:00Z,29.8672,-93.9310,1.529,1111122 
TCOON,ioos:station:TCOON:524:1,2015-03-12T15:18:00Z,29.8672,-93.9310,1.605,1111122 
TCOON,ioos:station:TCOON:524:1,2015-03-12T16:18:00Z,29.8672,-93.9310,1.653,1111122 
TCOON,ioos:station:TCOON:524:1,2015-03-12T17:12:00Z,29.8672,-93.9310,1.685,1111122 
TCOON,ioos:station:TCOON:524:1,2015-03-12T18:18:00Z,29.8672,-93.9310,1.713,1111122 
TCOON,ioos:station:TCOON:524:1,2015-03-12T19:18:00Z,29.8672,-93.9310,1.742,1111122 
TCOON,ioos:station:TCOON:524:1,2015-03-12T20:12:00Z,29.8672,-93.9310,1.733,1111122 
TCOON,ioos:station:TCOON:524:1,2015-03-12T21:12:00Z,29.8672,-93.9310,1.82,1111122 
TCOON,ioos:station:TCOON:524:1,2015-03-12T22:24:00Z,29.8672,-93.9310,1.793,1111122 